| time (UTC) | temp F | wind direction | speed MPH | gust MPH | rain 1hr in | rain 24hr in | rain mn in | humidity % | barometer mb |
| 20260906065530 | 75 | 143 | 2.0 | 4.0 | 0.00 | 0.00 | 0.00 | 51 | 1029.9 |
| 20260906065019 | 75 | 346 | 2.0 | 4.0 | 0.00 | 0.00 | 0.00 | 54 | 1025.2 |
| 20260906064526 | 75 | 133 | 2.0 | 4.0 | 0.00 | 0.00 | 0.00 | 53 | 1029.7 |
| 20260906064055 | 76 | 341 | 2.0 | 4.0 | 0.00 | 0.00 | 0.00 | 54 | 1025.2 |
| 20260906063523 | 75 | 104 | 1.0 | 4.0 | 0.00 | 0.00 | 0.00 | 51 | 1029.7 |
| 20260906063031 | 73 | 133 | 1.0 | 3.0 | 0.00 | 0.00 | 0.00 | 59 | 1025.1 |
| 20260906062519 | 75 | 122 | 1.0 | 2.0 | 0.00 | 0.00 | 0.00 | 50 | 1029.6 |
| 20260906062027 | 73 | 221 | 1.0 | 3.0 | 0.00 | 0.00 | 0.00 | 58 | 1025.0 |
| 20260906061535 | 74 | 112 | 1.0 | 4.0 | 0.00 | 0.00 | 0.00 | 53 | 1029.5 |
| 20260906061024 | 72 | 138 | 1.0 | 3.0 | 0.00 | 0.00 | 0.00 | 56 | 1025.0 |
| 20260906060531 | 74 | 116 | 1.0 | 3.0 | 0.00 | 0.00 | 0.00 | 47 | 1029.5 |
| 20260906060021 | 72 | 160 | 2.0 | 4.0 | 0.00 | 0.00 | 0.00 | 54 | 1024.8 |
| 20260906055547 | 73 | 148 | 2.0 | 3.0 | 0.00 | 0.00 | 0.00 | 43 | 1029.3 |
| 20260906055037 | 71 | 167 | 1.0 | 3.0 | 0.00 | 0.00 | 0.00 | 53 | 1024.8 |
| 20260906054603 | 73 | 143 | 1.0 | 3.0 | 0.00 | 0.00 | 0.00 | 43 | 1029.2 |
| 20260906054033 | 71 | 158 | 2.0 | 3.0 | 0.00 | 0.00 | 0.00 | 53 | 1024.7 |
| 20260906053519 | 72 | 150 | 2.0 | 4.0 | 0.00 | 0.00 | 0.00 | 44 | 1029.2 |
| 20260906053029 | 70 | 160 | 2.0 | 4.0 | 0.00 | 0.00 | 0.00 | 53 | 1024.7 |
| 20260906052516 | 71 | 148 | 2.0 | 4.0 | 0.00 | 0.00 | 0.00 | 45 | 1029.1 |
| 20260906052025 | 70 | 160 | 2.0 | 4.0 | 0.00 | 0.00 | 0.00 | 52 | 1024.7 |
| 20260906051532 | 70 | 137 | 2.0 | 4.0 | 0.00 | 0.00 | 0.00 | 45 | 1029.0 |
| 20260906051022 | 70 | 156 | 1.0 | 3.0 | 0.00 | 0.00 | 0.00 | 50 | 1024.5 |
| 20260906050527 | 70 | 107 | 1.0 | 2.0 | 0.00 | 0.00 | 0.00 | 46 | 1029.1 |
| 20260906050018 | 69 | 148 | 2.0 | 3.0 | 0.00 | 0.00 | 0.00 | 51 | 1024.5 |
| 20260906045523 | 68 | 0.0 | 2.0 | 0.00 | 0.00 | 0.00 | 48 | 1028.9 | |
| 20260906045055 | 69 | 166 | 1.0 | 4.0 | 0.00 | 0.00 | 0.00 | 49 | 1024.5 |
| 20260906044519 | 67 | 278 | 1.0 | 2.0 | 0.00 | 0.00 | 0.00 | 50 | 1029.0 |
| 20260906044031 | 69 | 112 | 1.0 | 3.0 | 0.00 | 0.00 | 0.00 | 49 | 1024.5 |
| 20260906043535 | 68 | 157 | 0.0 | 2.0 | 0.00 | 0.00 | 0.00 | 50 | 1029.0 |
| 20260906043027 | 69 | 147 | 2.0 | 4.0 | 0.00 | 0.00 | 0.00 | 49 | 1024.6 |
| 20260906042530 | 67 | 194 | 1.0 | 3.0 | 0.00 | 0.00 | 0.00 | 50 | 1029.0 |
| 20260906042024 | 68 | 158 | 3.0 | 6.0 | 0.00 | 0.00 | 0.00 | 49 | 1024.4 |
| 20260906041526 | 67 | 256 | 0.0 | 2.0 | 0.00 | 0.00 | 0.00 | 50 | 1028.9 |
| 20260906041020 | 68 | 164 | 3.0 | 5.0 | 0.00 | 0.00 | 0.00 | 49 | 1024.4 |
| 20260906040521 | 67 | 259 | 1.0 | 3.0 | 0.00 | 0.00 | 0.00 | 55 | 1028.9 |
| 20260906040016 | 68 | 150 | 2.0 | 4.0 | 0.00 | 0.00 | 0.00 | 51 | 1024.3 |
| 20260906035517 | 67 | 294 | 1.0 | 3.0 | 0.00 | 0.00 | 0.00 | 51 | 1028.8 |
| 20260906035053 | 68 | 190 | 2.0 | 3.0 | 0.00 | 0.00 | 0.00 | 51 | 1024.3 |
| 20260906034553 | 69 | 131 | 0.0 | 2.0 | 0.00 | 0.00 | 0.00 | 48 | 1028.7 |
| 20260906034029 | 69 | 33 | 1.0 | 3.0 | 0.00 | 0.00 | 0.00 | 54 | 1024.2 |
| 20260906033530 | 69 | 135 | 2.0 | 4.0 | 0.00 | 0.00 | 0.00 | 47 | 1028.7 |
| 20260906033025 | 70 | 348 | 1.0 | 3.0 | 0.00 | 0.00 | 0.00 | 51 | 1024.3 |
| 20260906032525 | 68 | 161 | 1.0 | 4.0 | 0.00 | 0.00 | 0.00 | 49 | 1028.7 |
| 20260906032022 | 69 | 143 | 1.0 | 3.0 | 0.00 | 0.00 | 0.00 | 50 | 1024.2 |
| 20260906031541 | 69 | 136 | 3.0 | 4.0 | 0.00 | 0.00 | 0.00 | 47 | 1028.7 |
| 20260906031058 | 69 | 148 | 2.0 | 4.0 | 0.00 | 0.00 | 0.00 | 51 | 1024.2 |
| 20260906030516 | 69 | 140 | 2.0 | 4.0 | 0.00 | 0.00 | 0.00 | 48 | 1028.7 |
| 20260906030034 | 70 | 174 | 1.0 | 3.0 | 0.00 | 0.00 | 0.00 | 49 | 1024.3 |
| 20260906025533 | 69 | 135 | 2.0 | 4.0 | 0.00 | 0.00 | 0.00 | 48 | 1028.7 |
| 20260906025031 | 69 | 67 | 2.0 | 4.0 | 0.00 | 0.00 | 0.00 | 54 | 1024.3 |
| 20260906024529 | 69 | 146 | 2.0 | 4.0 | 0.00 | 0.00 | 0.00 | 49 | 1028.9 |
| 20260906024027 | 70 | 23 | 3.0 | 6.0 | 0.00 | 0.00 | 0.00 | 52 | 1024.4 |
| 20260906023525 | 69 | 139 | 3.0 | 4.0 | 0.00 | 0.00 | 0.00 | 48 | 1028.9 |
| 20260906023024 | 70 | 4 | 1.0 | 4.0 | 0.00 | 0.00 | 0.00 | 52 | 1024.5 |
| 20260906022520 | 68 | 165 | 1.0 | 5.0 | 0.00 | 0.00 | 0.00 | 49 | 1028.8 |
| 20260906022020 | 70 | 153 | 1.0 | 3.0 | 0.00 | 0.00 | 0.00 | 50 | 1024.3 |
| 20260906021516 | 68 | 0.0 | 2.0 | 0.00 | 0.00 | 0.00 | 49 | 1028.9 | |
| 20260906021016 | 70 | 81 | 1.0 | 3.0 | 0.00 | 0.00 | 0.00 | 49 | 1024.3 |
| 20260906020531 | 69 | 172 | 0.0 | 3.0 | 0.00 | 0.00 | 0.00 | 47 | 1028.9 |
| 20260906020032 | 70 | 100 | 2.0 | 3.0 | 0.00 | 0.00 | 0.00 | 48 | 1024.3 |
| 20260906015547 | 69 | 138 | 1.0 | 4.0 | 0.00 | 0.00 | 0.00 | 47 | 1028.9 |
| 20260906015029 | 70 | 86 | 1.0 | 3.0 | 0.00 | 0.00 | 0.00 | 48 | 1024.4 |
| 20260906014523 | 70 | 144 | 3.0 | 5.0 | 0.00 | 0.00 | 0.00 | 43 | 1028.8 |
| 20260906014025 | 69 | 114 | 1.0 | 3.0 | 0.00 | 0.00 | 0.00 | 49 | 1024.4 |
| 20260906013519 | 70 | 140 | 2.0 | 5.0 | 0.00 | 0.00 | 0.00 | 43 | 1029.0 |
| 20260906013021 | 69 | 166 | 2.0 | 4.0 | 0.00 | 0.00 | 0.00 | 50 | 1024.4 |
| 20260906012534 | 69 | 131 | 3.0 | 4.0 | 0.00 | 0.00 | 0.00 | 48 | 1028.9 |
| 20260906012018 | 69 | 171 | 3.0 | 4.0 | 0.00 | 0.00 | 0.00 | 50 | 1024.3 |
| 20260906011530 | 68 | 134 | 2.0 | 4.0 | 0.00 | 0.00 | 0.00 | 53 | 1028.9 |
| 20260906011054 | 69 | 161 | 3.0 | 4.0 | 0.00 | 0.00 | 0.00 | 50 | 1024.4 |
| 20260906010546 | 68 | 150 | 2.0 | 4.0 | 0.00 | 0.00 | 0.00 | 55 | 1029.0 |
| 20260906010111 | 69 | 149 | 2.0 | 4.0 | 0.00 | 0.00 | 0.00 | 50 | 1024.4 |
| 20260906005520 | 67 | 153 | 1.0 | 3.0 | 0.00 | 0.00 | 0.00 | 54 | 1029.0 |
| 20260906005047 | 69 | 94 | 1.0 | 2.0 | 0.00 | 0.00 | 0.00 | 55 | 1024.4 |
| 20260906004516 | 68 | 214 | 1.0 | 2.0 | 0.00 | 0.00 | 0.00 | 53 | 1029.0 |
| 20260906004023 | 69 | 123 | 2.0 | 3.0 | 0.00 | 0.00 | 0.00 | 49 | 1024.4 |
| 20260906003532 | 68 | 183 | 0.0 | 3.0 | 0.00 | 0.00 | 0.00 | 52 | 1029.2 |
| 20260906003020 | 70 | 100 | 1.0 | 2.0 | 0.00 | 0.00 | 0.00 | 55 | 1024.5 |
| 20260906002528 | 68 | 145 | 2.0 | 4.0 | 0.00 | 0.00 | 0.00 | 51 | 1029.0 |
| 20260906002016 | 69 | 122 | 1.0 | 2.0 | 0.00 | 0.00 | 0.00 | 49 | 1024.6 |
| 20260906001525 | 68 | 139 | 1.0 | 4.0 | 0.00 | 0.00 | 0.00 | 53 | 1029.2 |
| 20260906001033 | 69 | 173 | 2.0 | 3.0 | 0.00 | 0.00 | 0.00 | 49 | 1024.7 |
| 20260906000601 | 67 | 126 | 1.0 | 4.0 | 0.00 | 0.00 | 0.00 | 54 | 1029.2 |
| 20260906000049 | 69 | 171 | 3.0 | 4.0 | 0.00 | 0.00 | 0.00 | 51 | 1024.6 |
| 20260905235516 | 68 | 117 | 0.0 | 4.0 | 0.00 | 0.00 | 0.00 | 54 | 1029.3 |
| 20260905235045 | 70 | 147 | 2.0 | 3.0 | 0.00 | 0.00 | 0.00 | 56 | 1024.8 |
| 20260905234533 | 68 | 138 | 1.0 | 4.0 | 0.00 | 0.00 | 0.00 | 52 | 1029.3 |
| 20260905234022 | 70 | 64 | 1.0 | 2.0 | 0.00 | 0.00 | 0.00 | 62 | 1024.8 |
| 20260905233529 | 68 | 126 | 2.0 | 4.0 | 0.00 | 0.00 | 0.00 | 54 | 1029.4 |
| 20260905233018 | 70 | 74 | 2.0 | 3.0 | 0.00 | 0.00 | 0.00 | 57 | 1024.8 |
| 20260905232545 | 68 | 139 | 2.0 | 4.0 | 0.00 | 0.00 | 0.00 | 54 | 1029.4 |
| 20260905232034 | 71 | 71 | 1.0 | 3.0 | 0.00 | 0.00 | 0.00 | 53 | 1024.8 |
| 20260905231521 | 68 | 128 | 1.0 | 4.0 | 0.00 | 0.00 | 0.00 | 54 | 1029.3 |
| 20260905231031 | 71 | 107 | 2.0 | 3.0 | 0.00 | 0.00 | 0.00 | 48 | 1024.9 |
| 20260905230517 | 68 | 92 | 1.0 | 3.0 | 0.00 | 0.00 | 0.00 | 54 | 1029.3 |
| 20260905230027 | 70 | 131 | 1.0 | 2.0 | 0.00 | 0.00 | 0.00 | 47 | 1024.8 |
| 20260905225533 | 68 | 140 | 2.0 | 4.0 | 0.00 | 0.00 | 0.00 | 54 | 1029.4 |
| 20260905225024 | 69 | 160 | 2.0 | 3.0 | 0.00 | 0.00 | 0.00 | 49 | 1024.8 |
| 20260905224529 | 68 | 83 | 1.0 | 2.0 | 0.00 | 0.00 | 0.00 | 53 | 1029.4 |
| 20260905224020 | 70 | 166 | 2.0 | 4.0 | 0.00 | 0.00 | 0.00 | 50 | 1024.9 |
| 20260905223525 | 68 | 118 | 1.0 | 3.0 | 0.00 | 0.00 | 0.00 | 51 | 1029.4 |
| 20260905223036 | 71 | 153 | 1.0 | 2.0 | 0.00 | 0.00 | 0.00 | 50 | 1024.9 |
| 20260905222521 | 68 | 104 | 2.0 | 4.0 | 0.00 | 0.00 | 0.00 | 53 | 1029.4 |
| 20260905222033 | 71 | 249 | 1.0 | 2.0 | 0.00 | 0.00 | 0.00 | 51 | 1024.9 |
| 20260905221617 | 68 | 142 | 1.0 | 3.0 | 0.00 | 0.00 | 0.00 | 50 | 1029.4 |
| 20260905221029 | 71 | 180 | 2.0 | 3.0 | 0.00 | 0.00 | 0.00 | 51 | 1024.8 |
| 20260905220533 | 68 | 101 | 1.0 | 3.0 | 0.00 | 0.00 | 0.00 | 48 | 1029.4 |
| 20260905220025 | 70 | 176 | 2.0 | 4.0 | 0.00 | 0.00 | 0.00 | 50 | 1024.8 |
| 20260905215529 | 68 | 99 | 1.0 | 3.0 | 0.00 | 0.00 | 0.00 | 45 | 1029.3 |
| 20260905215022 | 69 | 159 | 2.0 | 3.0 | 0.00 | 0.00 | 0.00 | 55 | 1024.8 |
| 20260905214525 | 68 | 0.0 | 2.0 | 0.00 | 0.00 | 0.00 | 46 | 1029.4 | |
| 20260905214058 | 69 | 120 | 1.0 | 2.0 | 0.00 | 0.00 | 0.00 | 60 | 1024.7 |
| 20260905213521 | 68 | 0.0 | 2.0 | 0.00 | 0.00 | 0.00 | 49 | 1029.5 | |
| 20260905213035 | 70 | 53 | 2.0 | 3.0 | 0.00 | 0.00 | 0.00 | 64 | 1024.9 |
| 20260905212517 | 69 | 182 | 0.0 | 2.0 | 0.00 | 0.00 | 0.00 | 48 | 1029.5 |
| 20260905212031 | 70 | 53 | 1.0 | 2.0 | 0.00 | 0.00 | 0.00 | 65 | 1024.8 |
| 20260905211533 | 69 | 0.0 | 2.0 | 0.00 | 0.00 | 0.00 | 47 | 1029.5 | |
| 20260905211049 | 70 | 67 | 1.0 | 2.0 | 0.00 | 0.00 | 0.00 | 63 | 1024.8 |
| 20260905210529 | 69 | 132 | 0.0 | 2.0 | 0.00 | 0.00 | 0.00 | 50 | 1029.5 |
| 20260905210024 | 71 | 53 | 1.0 | 3.0 | 0.00 | 0.00 | 0.00 | 59 | 1024.7 |
| 20260905205526 | 69 | 285 | 0.0 | 2.0 | 0.00 | 0.00 | 0.00 | 48 | 1029.4 |
| 20260905205020 | 72 | 62 | 1.0 | 4.0 | 0.00 | 0.00 | 0.00 | 50 | 1024.7 |
| 20260905204521 | 69 | 0.0 | 2.0 | 0.00 | 0.00 | 0.00 | 54 | 1029.5 | |
| 20260905204016 | 73 | 75 | 1.0 | 3.0 | 0.00 | 0.00 | 0.00 | 37 | 1024.7 |
| 20260905203517 | 69 | 136 | 0.0 | 2.0 | 0.00 | 0.00 | 0.00 | 52 | 1029.3 |
| 20260905203053 | 73 | 138 | 1.0 | 2.0 | 0.00 | 0.00 | 0.00 | 38 | 1024.8 |
| 20260905202534 | 70 | 123 | 1.0 | 3.0 | 0.00 | 0.00 | 0.00 | 52 | 1029.5 |
| 20260905202030 | 73 | 162 | 2.0 | 3.0 | 0.00 | 0.00 | 0.00 | 37 | 1024.6 |
| 20260905201530 | 70 | 118 | 2.0 | 4.0 | 0.00 | 0.00 | 0.00 | 51 | 1029.5 |
| 20260905201046 | 73 | 183 | 4.0 | 5.0 | 0.00 | 0.00 | 0.00 | 37 | 1024.5 |
| 20260905200546 | 70 | 150 | 1.0 | 5.0 | 0.00 | 0.00 | 0.00 | 49 | 1029.5 |
| 20260905200042 | 72 | 183 | 5.0 | 6.0 | 0.00 | 0.00 | 0.00 | 37 | 1024.6 |
| 20260905195521 | 69 | 131 | 1.0 | 4.0 | 0.00 | 0.00 | 0.00 | 48 | 1029.6 |
| 20260905195018 | 73 | 166 | 3.0 | 4.0 | 0.00 | 0.00 | 0.00 | 38 | 1024.7 |
| 20260905194518 | 70 | 102 | 1.0 | 3.0 | 0.00 | 0.00 | 0.00 | 46 | 1029.5 |
| 20260905194035 | 74 | 152 | 2.0 | 3.0 | 0.00 | 0.00 | 0.00 | 42 | 1024.7 |
| 20260905193534 | 69 | 90 | 1.0 | 2.0 | 0.00 | 0.00 | 0.00 | 48 | 1029.5 |
| 20260905193031 | 74 | 132 | 2.0 | 3.0 | 0.00 | 0.00 | 0.00 | 43 | 1024.8 |
| 20260905192551 | 69 | 0.0 | 1.0 | 0.00 | 0.00 | 0.00 | 54 | 1029.4 | |
| 20260905192028 | 75 | 135 | 1.0 | 2.0 | 0.00 | 0.00 | 0.00 | 44 | 1024.7 |
| 20260905191526 | 69 | 76 | 0.0 | 2.0 | 0.00 | 0.00 | 0.00 | 59 | 1029.4 |
| 20260905191024 | 74 | 163 | 0.0 | 2.0 | 0.00 | 0.00 | 0.00 | 47 | 1024.6 |
| 20260905190523 | 69 | 0.0 | 1.0 | 0.00 | 0.00 | 0.00 | 57 | 1029.4 | |
| 20260905190020 | 74 | 181 | 2.0 | 4.0 | 0.00 | 0.00 | 0.00 | 53 | 1024.6 |
| 20260905185519 | 70 | 92 | 0.0 | 1.0 | 0.00 | 0.00 | 0.00 | 51 | 1029.4 |
| 20260905185017 | 74 | 189 | 3.0 | 4.0 | 0.00 | 0.00 | 0.00 | 56 | 1024.4 |
| 20260905184555 | 70 | 0.0 | 1.0 | 0.00 | 0.00 | 0.00 | 46 | 1029.4 | |
| 20260905184033 | 74 | 183 | 4.0 | 5.0 | 0.00 | 0.00 | 0.00 | 57 | 1024.3 |
| 20260905183550 | 70 | 0.0 | 1.0 | 0.00 | 0.00 | 0.00 | 50 | 1029.3 | |
| 20260905183030 | 74 | 183 | 4.0 | 5.0 | 0.00 | 0.00 | 0.00 | 59 | 1024.2 |
| 20260905182547 | 70 | 117 | 0.0 | 2.0 | 0.00 | 0.00 | 0.00 | 57 | 1029.3 |
| 20260905182027 | 74 | 181 | 4.0 | 5.0 | 0.00 | 0.00 | 0.00 | 60 | 1024.3 |
| 20260905181522 | 70 | 86 | 0.0 | 3.0 | 0.00 | 0.00 | 0.00 | 58 | 1029.2 |
| 20260905181023 | 74 | 181 | 5.0 | 5.0 | 0.00 | 0.00 | 0.00 | 59 | 1024.1 |
| 20260905180517 | 70 | 276 | 1.0 | 3.0 | 0.00 | 0.00 | 0.00 | 61 | 1029.2 |
| 20260905180019 | 74 | 179 | 5.0 | 6.0 | 0.00 | 0.00 | 0.00 | 58 | 1024.1 |
| 20260905175533 | 69 | 256 | 2.0 | 4.0 | 0.00 | 0.00 | 0.00 | 66 | 1029.0 |
| 20260905175035 | 74 | 180 | 5.0 | 6.0 | 0.00 | 0.00 | 0.00 | 57 | 1024.0 |
| 20260905174528 | 70 | 248 | 2.0 | 4.0 | 0.00 | 0.00 | 0.00 | 69 | 1029.1 |
| 20260905174032 | 75 | 179 | 5.0 | 6.0 | 0.00 | 0.00 | 0.00 | 56 | 1023.9 |
| 20260905173544 | 70 | 235 | 2.0 | 5.0 | 0.00 | 0.00 | 0.00 | 71 | 1029.0 |
| 20260905173028 | 75 | 183 | 5.0 | 7.0 | 0.00 | 0.00 | 0.00 | 54 | 1024.0 |
| 20260905172520 | 71 | 226 | 1.0 | 6.0 | 0.00 | 0.00 | 0.00 | 70 | 1028.9 |
| 20260905172025 | 76 | 177 | 5.0 | 7.0 | 0.00 | 0.00 | 0.00 | 53 | 1024.0 |
| 20260905171516 | 71 | 241 | 2.0 | 6.0 | 0.00 | 0.00 | 0.00 | 69 | 1028.9 |
| 20260905171021 | 76 | 179 | 5.0 | 7.0 | 0.00 | 0.00 | 0.00 | 53 | 1023.9 |
| 20260905170531 | 71 | 210 | 2.0 | 8.0 | 0.00 | 0.00 | 0.00 | 68 | 1029.1 |
| 20260905170017 | 77 | 184 | 5.0 | 7.0 | 0.00 | 0.00 | 0.00 | 50 | 1023.9 |
| 20260905165527 | 72 | 155 | 1.0 | 4.0 | 0.00 | 0.00 | 0.00 | 66 | 1029.0 |
| 20260905165034 | 78 | 190 | 4.0 | 7.0 | 0.00 | 0.00 | 0.00 | 49 | 1023.8 |
| 20260905164523 | 73 | 227 | 1.0 | 11.0 | 0.00 | 0.00 | 0.00 | 63 | 1029.0 |
| 20260905164030 | 79 | 191 | 3.0 | 5.0 | 0.00 | 0.00 | 0.00 | 48 | 1023.7 |
| 20260905163519 | 73 | 278 | 2.0 | 8.0 | 0.00 | 0.00 | 0.00 | 61 | 1028.9 |
| 20260905163026 | 80 | 191 | 4.0 | 6.0 | 0.00 | 0.00 | 0.00 | 47 | 1023.8 |
| 20260905162535 | 73 | 249 | 3.0 | 9.0 | 0.00 | 0.00 | 0.00 | 58 | 1029.1 |
| 20260905162128 | 80 | 184 | 4.0 | 6.0 | 0.00 | 0.00 | 0.00 | 46 | 1023.9 |
| 20260905161530 | 74 | 230 | 4.0 | 10.0 | 0.00 | 0.00 | 0.00 | 56 | 1029.0 |
| 20260905161019 | 81 | 205 | 3.0 | 6.0 | 0.00 | 0.00 | 0.00 | 45 | 1024.0 |
| 20260905160526 | 76 | 263 | 3.0 | 10.0 | 0.00 | 0.00 | 0.00 | 58 | 1029.0 |
| 20260905160015 | 81 | 205 | 4.0 | 9.0 | 0.00 | 0.00 | 0.00 | 46 | 1024.0 |
| 20260905155521 | 77 | 284 | 4.0 | 9.0 | 0.00 | 0.00 | 0.00 | 59 | 1029.1 |
| 20260905155032 | 82 | 217 | 4.0 | 9.0 | 0.00 | 0.00 | 0.00 | 44 | 1024.0 |
| 20260905154517 | 77 | 329 | 2.0 | 7.0 | 0.00 | 0.00 | 0.00 | 57 | 1029.1 |
| 20260905154028 | 82 | 204 | 4.0 | 7.0 | 0.00 | 0.00 | 0.00 | 42 | 1024.1 |
| 20260905153534 | 77 | 355 | 1.0 | 6.0 | 0.00 | 0.00 | 0.00 | 58 | 1029.2 |
| 20260905153025 | 83 | 205 | 4.0 | 8.0 | 0.00 | 0.00 | 0.00 | 39 | 1024.0 |
| 20260905152529 | 76 | 286 | 4.0 | 11.0 | 0.00 | 0.00 | 0.00 | 57 | 1029.2 |
| 20260905152101 | 83 | 208 | 4.0 | 8.0 | 0.00 | 0.00 | 0.00 | 39 | 1023.9 |
| 20260905151525 | 77 | 260 | 3.0 | 7.0 | 0.00 | 0.00 | 0.00 | 56 | 1029.2 |
| 20260905151018 | 84 | 211 | 4.0 | 8.0 | 0.00 | 0.00 | 0.00 | 39 | 1024.1 |
| 20260905150521 | 78 | 275 | 3.0 | 17.0 | 0.00 | 0.00 | 0.00 | 53 | 1029.1 |
| 20260905150035 | 84 | 196 | 3.0 | 6.0 | 0.00 | 0.00 | 0.00 | 39 | 1024.0 |
| 20260905145516 | 77 | 272 | 5.0 | 16.0 | 0.00 | 0.00 | 0.00 | 52 | 1029.2 |
| 20260905145051 | 85 | 232 | 4.0 | 9.0 | 0.00 | 0.00 | 0.00 | 40 | 1024.0 |
| 20260905144532 | 78 | 266 | 4.0 | 15.0 | 0.00 | 0.00 | 0.00 | 50 | 1029.1 |
| 20260905144027 | 85 | 211 | 4.0 | 8.0 | 0.00 | 0.00 | 0.00 | 41 | 1024.1 |
| 20260905143528 | 79 | 296 | 3.0 | 20.0 | 0.00 | 0.00 | 0.00 | 50 | 1029.0 |
| 20260905143023 | 85 | 216 | 4.0 | 9.0 | 0.00 | 0.00 | 0.00 | 39 | 1024.1 |
| 20260905142523 | 79 | 270 | 3.0 | 11.0 | 0.00 | 0.00 | 0.00 | 49 | 1029.2 |
| 20260905142040 | 86 | 198 | 3.0 | 11.0 | 0.00 | 0.00 | 0.00 | 38 | 1023.9 |
| 20260905141518 | 79 | 256 | 5.0 | 17.0 | 0.00 | 0.00 | 0.00 | 49 | 1029.3 |
| 20260905141036 | 86 | 205 | 4.0 | 9.0 | 0.00 | 0.00 | 0.00 | 38 | 1024.2 |
| 20260905140534 | 80 | 216 | 5.0 | 16.0 | 0.00 | 0.00 | 0.00 | 46 | 1029.2 |
| 20260905140032 | 86 | 212 | 4.0 | 10.0 | 0.00 | 0.00 | 0.00 | 37 | 1024.2 |
| 20260905135530 | 80 | 236 | 4.0 | 10.0 | 0.00 | 0.00 | 0.00 | 44 | 1029.4 |
| 20260905135029 | 87 | 192 | 4.0 | 10.0 | 0.00 | 0.00 | 0.00 | 34 | 1024.3 |
| 20260905134526 | 81 | 259 | 2.0 | 8.0 | 0.00 | 0.00 | 0.00 | 42 | 1029.4 |
| 20260905134025 | 88 | 210 | 3.0 | 6.0 | 0.00 | 0.00 | 0.00 | 34 | 1024.4 |
| 20260905133522 | 81 | 245 | 4.0 | 16.0 | 0.00 | 0.00 | 0.00 | 41 | 1029.5 |
| 20260905133042 | 89 | 198 | 3.0 | 7.0 | 0.00 | 0.00 | 0.00 | 32 | 1024.5 |
| 20260905132518 | 82 | 257 | 3.0 | 7.0 | 0.00 | 0.00 | 0.00 | 40 | 1029.6 |
| 20260905132018 | 88 | 243 | 3.0 | 10.0 | 0.00 | 0.00 | 0.00 | 33 | 1024.4 |
| 20260905131534 | 81 | 280 | 4.0 | 13.0 | 0.00 | 0.00 | 0.00 | 41 | 1029.8 |
| 20260905131034 | 89 | 213 | 3.0 | 6.0 | 0.00 | 0.00 | 0.00 | 31 | 1024.4 |
| 20260905130529 | 82 | 194 | 3.0 | 9.0 | 0.00 | 0.00 | 0.00 | 40 | 1029.7 |
| 20260905130031 | 88 | 223 | 2.0 | 6.0 | 0.00 | 0.00 | 0.00 | 31 | 1024.4 |
| 20260905125525 | 81 | 236 | 3.0 | 11.0 | 0.00 | 0.00 | 0.00 | 39 | 1029.8 |
| 20260905125027 | 88 | 270 | 3.0 | 6.0 | 0.00 | 0.00 | 0.00 | 30 | 1024.6 |
| 20260905124520 | 82 | 250 | 4.0 | 8.0 | 0.00 | 0.00 | 0.00 | 37 | 1029.8 |
| 20260905124024 | 89 | 287 | 2.0 | 5.0 | 0.00 | 0.00 | 0.00 | 28 | 1024.7 |
| 20260905123516 | 82 | 225 | 2.0 | 8.0 | 0.00 | 0.00 | 0.00 | 37 | 1029.8 |
| 20260905123020 | 89 | 280 | 2.0 | 6.0 | 0.00 | 0.00 | 0.00 | 28 | 1024.7 |
| 20260905122531 | 82 | 241 | 2.0 | 7.0 | 0.00 | 0.00 | 0.00 | 36 | 1030.1 |
| 20260905122016 | 90 | 283 | 2.0 | 5.0 | 0.00 | 0.00 | 0.00 | 27 | 1024.7 |
| 20260905121528 | 81 | 310 | 3.0 | 10.0 | 0.00 | 0.00 | 0.00 | 39 | 1030.1 |
| 20260905121033 | 90 | 307 | 3.0 | 7.0 | 0.00 | 0.00 | 0.00 | 26 | 1024.7 |
| 20260905120523 | 80 | 269 | 3.0 | 9.0 | 0.00 | 0.00 | 0.00 | 40 | 1030.2 |
| 20260905120029 | 91 | 299 | 2.0 | 4.0 | 0.00 | 0.00 | 0.00 | 26 | 1024.7 |
| 20260905115519 | 81 | 108 | 2.0 | 6.0 | 0.00 | 0.00 | 0.00 | 41 | 1030.2 |
| 20260905115025 | 88 | 259 | 1.0 | 3.0 | 0.00 | 0.00 | 0.00 | 29 | 1024.8 |
| 20260905114515 | 81 | 39 | 3.0 | 6.0 | 0.00 | 0.00 | 0.00 | 42 | 1030.2 |
| 20260905114022 | 87 | 298 | 2.0 | 5.0 | 0.00 | 0.00 | 0.00 | 31 | 1024.7 |
| 20260905113531 | 81 | 180 | 3.0 | 7.0 | 0.00 | 0.00 | 0.00 | 41 | 1030.2 |
| 20260905113018 | 87 | 331 | 3.0 | 6.0 | 0.00 | 0.00 | 0.00 | 31 | 1024.7 |
| 20260905112526 | 82 | 99 | 2.0 | 7.0 | 0.00 | 0.00 | 0.00 | 40 | 1030.1 |
| 20260905112055 | 89 | 331 | 2.0 | 5.0 | 0.00 | 0.00 | 0.00 | 29 | 1024.8 |
| 20260905111523 | 80 | 194 | 2.0 | 6.0 | 0.00 | 0.00 | 0.00 | 44 | 1030.1 |
| 20260905111031 | 87 | 291 | 2.0 | 5.0 | 0.00 | 0.00 | 0.00 | 30 | 1024.8 |
| 20260905110539 | 79 | 313 | 3.0 | 11.0 | 0.00 | 0.00 | 0.00 | 44 | 1030.3 |
| 20260905110028 | 87 | 309 | 2.0 | 5.0 | 0.00 | 0.00 | 0.00 | 30 | 1024.9 |
| 20260905105535 | 82 | 284 | 2.0 | 5.0 | 0.00 | 0.00 | 0.00 | 40 | 1030.2 |
| 20260905105044 | 88 | 303 | 1.0 | 4.0 | 0.00 | 0.00 | 0.00 | 29 | 1024.8 |
| 20260905104531 | 80 | 307 | 2.0 | 7.0 | 0.00 | 0.00 | 0.00 | 39 | 1030.2 |
| 20260905104020 | 87 | 289 | 2.0 | 3.0 | 0.00 | 0.00 | 0.00 | 30 | 1024.8 |
| 20260905103527 | 81 | 100 | 2.0 | 4.0 | 0.00 | 0.00 | 0.00 | 38 | 1030.2 |
| 20260905103016 | 86 | 281 | 2.0 | 5.0 | 0.00 | 0.00 | 0.00 | 32 | 1025.0 |
| 20260905102523 | 80 | 302 | 2.0 | 5.0 | 0.00 | 0.00 | 0.00 | 36 | 1030.3 |
| 20260905102034 | 84 | 281 | 1.0 | 4.0 | 0.00 | 0.00 | 0.00 | 35 | 1025.1 |
| 20260905101539 | 81 | 67 | 2.0 | 4.0 | 0.00 | 0.00 | 0.00 | 36 | 1030.1 |
| 20260905101029 | 85 | 301 | 2.0 | 5.0 | 0.00 | 0.00 | 0.00 | 33 | 1025.0 |
| 20260905100534 | 80 | 133 | 3.0 | 6.0 | 0.00 | 0.00 | 0.00 | 36 | 1030.3 |
| 20260905100026 | 0 | 0.0 | 0.0 | 0.00 | 0.00 | 0.00 | 1025.1 | ||
| 20260905095529 | 82 | 224 | 2.0 | 6.0 | 0.00 | 0.00 | 0.00 | 38 | 1030.5 |
| 20260905095022 | 83 | 285 | 1.0 | 3.0 | 0.00 | 0.00 | 0.00 | 37 | 1025.1 |
| 20260905094526 | 80 | 2 | 2.0 | 6.0 | 0.00 | 0.00 | 0.00 | 41 | 1030.4 |
| 20260905094019 | 83 | 304 | 2.0 | 6.0 | 0.00 | 0.00 | 0.00 | 37 | 1025.0 |
| 20260905093542 | 81 | 109 | 2.0 | 5.0 | 0.00 | 0.00 | 0.00 | 41 | 1030.4 |
| 20260905093035 | 83 | 10 | 1.0 | 4.0 | 0.00 | 0.00 | 0.00 | 37 | 1025.1 |
| 20260905092518 | 79 | 8 | 2.0 | 6.0 | 0.00 | 0.00 | 0.00 | 42 | 1030.3 |
| 20260905092051 | 82 | 325 | 2.0 | 4.0 | 0.00 | 0.00 | 0.00 | 39 | 1025.2 |
| 20260905091534 | 80 | 113 | 2.0 | 7.0 | 0.00 | 0.00 | 0.00 | 42 | 1030.2 |
| 20260905091027 | 82 | 310 | 2.0 | 4.0 | 0.00 | 0.00 | 0.00 | 40 | 1025.0 |
| 20260905090530 | 79 | 98 | 2.0 | 6.0 | 0.00 | 0.00 | 0.00 | 42 | 1030.3 |
| 20260905090044 | 82 | 307 | 3.0 | 4.0 | 0.00 | 0.00 | 0.00 | 40 | 1024.8 |
| 20260905085526 | 79 | 124 | 2.0 | 6.0 | 0.00 | 0.00 | 0.00 | 43 | 1030.1 |
| 20260905085020 | 82 | 13 | 1.0 | 3.0 | 0.00 | 0.00 | 0.00 | 40 | 1024.9 |
| 20260905084523 | 80 | 285 | 2.0 | 6.0 | 0.00 | 0.00 | 0.00 | 42 | 1030.2 |
| 20260905084017 | 82 | 311 | 1.0 | 3.0 | 0.00 | 0.00 | 0.00 | 40 | 1024.9 |
| 20260905083539 | 80 | 284 | 2.0 | 7.0 | 0.00 | 0.00 | 0.00 | 43 | 1030.1 |
| 20260905083034 | 81 | 0.0 | 2.0 | 0.00 | 0.00 | 0.00 | 41 | 1024.9 | |
| 20260905082534 | 78 | 72 | 2.0 | 4.0 | 0.00 | 0.00 | 0.00 | 43 | 1029.9 |
| 20260905082030 | 81 | 297 | 1.0 | 3.0 | 0.00 | 0.00 | 0.00 | 41 | 1024.9 |
| 20260905081531 | 78 | 149 | 2.0 | 7.0 | 0.00 | 0.00 | 0.00 | 44 | 1029.8 |
| 20260905081026 | 82 | 299 | 1.0 | 3.0 | 0.00 | 0.00 | 0.00 | 40 | 1024.8 |
| 20260905080527 | 79 | 153 | 2.0 | 6.0 | 0.00 | 0.00 | 0.00 | 44 | 1029.8 |
| 20260905080024 | 81 | 69 | 1.0 | 4.0 | 0.00 | 0.00 | 0.00 | 40 | 1024.7 |
| 20260905075523 | 78 | 137 | 1.0 | 4.0 | 0.00 | 0.00 | 0.00 | 45 | 1029.6 |
| 20260905075019 | 80 | 311 | 1.0 | 3.0 | 0.00 | 0.00 | 0.00 | 42 | 1024.7 |
| 20260905074519 | 77 | 135 | 2.0 | 4.0 | 0.00 | 0.00 | 0.00 | 48 | 1029.7 |
| 20260905074055 | 80 | 327 | 1.0 | 4.0 | 0.00 | 0.00 | 0.00 | 41 | 1024.7 |
| 20260905073515 | 78 | 94 | 1.0 | 3.0 | 0.00 | 0.00 | 0.00 | 48 | 1029.8 |
| 20260905073031 | 80 | 297 | 2.0 | 4.0 | 0.00 | 0.00 | 0.00 | 42 | 1024.6 |
| 20260905072532 | 78 | 132 | 1.0 | 4.0 | 0.00 | 0.00 | 0.00 | 49 | 1029.7 |
| 20260905072028 | 79 | 317 | 1.0 | 4.0 | 0.00 | 0.00 | 0.00 | 41 | 1024.6 |
| 20260905071528 | 77 | 132 | 1.0 | 3.0 | 0.00 | 0.00 | 0.00 | 48 | 1029.7 |
| 20260905071044 | 81 | 330 | 1.0 | 4.0 | 0.00 | 0.00 | 0.00 | 39 | 1024.5 |
| 20260905070524 | 77 | 217 | 1.0 | 4.0 | 0.00 | 0.00 | 0.00 | 49 | 1029.6 |
| 20260905070021 | 81 | 350 | 2.0 | 5.0 | 0.00 | 0.00 | 0.00 | 40 | 1024.5 |